N8QF-1 Weather Reports


time (UTC)temp
C
wind
direction
speed
KPH
gust
KPH
rain 1hr
cm
rain 24hr
cm
rain mn
cm
humidity
%
barometer
mb
20260507093051 6 356 0.0 0.0 0.00 0.56 0.00 78 1015.0
20260507092550 6 356 0.0 1.6 0.00 0.56 0.00 78 1014.9
20260507092050 6 356 1.6 8.0 0.00 0.56 0.00 77 1014.8
20260507091548 6 343 4.8 6.4 0.00 0.56 0.00 77 1014.9
20260507091048 6 321 4.8 8.0 0.00 0.56 0.00 79 1014.8
20260507090547 6 321 1.6 4.8 0.00 0.56 0.00 80 1014.8
20260507090047 6 332 0.0 4.8 0.00 0.56 0.00 81 1014.7
20260507085544 6 330 3.2 4.8 0.00 0.56 0.00 81 1014.8
20260507084543 6 326 0.0 0.0 0.00 0.56 0.00 81 1014.7
20260507084043 6 326 0.0 0.0 0.00 0.56 0.00 81 1014.7
20260507083542 6 326 0.0 0.0 0.00 0.56 0.00 81 1014.6
20260507082541 7 326 0.0 0.0 0.00 0.56 0.00 81 1014.5
20260507082041 7 326 0.0 0.0 0.00 0.56 0.00 81 1014.6
20260507081540 7 326 0.0 0.0 0.00 0.56 0.00 82 1014.5
20260507081040 7 326 0.0 0.0 0.00 0.56 0.00 82 1014.6
20260507080539 7 326 0.0 0.0 0.00 0.56 0.00 82 1014.6
20260507080038 7 326 0.0 0.0 0.00 0.56 0.00 82 1014.6
20260507075538 7 326 0.0 0.0 0.00 0.56 0.00 82 1014.6
20260507075037 7 326 0.0 0.0 0.00 0.56 0.00 82 1014.6
20260507074537 7 326 0.0 0.0 0.00 0.56 0.00 82 1014.5
20260507074036 7 326 0.0 6.4 0.00 0.56 0.00 82 1014.5
20260507073536 7 326 0.0 0.0 0.00 0.56 0.00 83 1014.6
20260507073035 7 249 0.0 0.0 0.00 0.56 0.00 84 1014.6
20260507072535 7 249 0.0 0.0 0.00 0.56 0.00 85 1014.5
20260507072035 7 249 0.0 0.0 0.00 0.56 0.00 85 1014.5
20260507071534 7 249 0.0 0.0 0.00 0.56 0.00 85 1014.6
20260507071033 7 249 0.0 0.0 0.00 0.56 0.00 85 1014.6
20260507070533 7 249 0.0 0.0 0.00 0.56 0.00 85 1014.6
20260507070032 7 249 0.0 0.0 0.00 0.56 0.00 85 1014.6
20260507065532 7 249 0.0 0.0 0.00 0.56 0.00 86 1014.6
20260507065031 7 249 0.0 0.0 0.00 0.56 0.00 87 1014.6
20260507064531 7 249 0.0 0.0 0.00 0.56 0.00 87 1014.8
20260507064029 7 249 0.0 0.0 0.00 0.56 0.00 88 1014.7
20260507063529 7 249 0.0 0.0 0.00 0.56 0.00 89 1014.7
20260507063028 7 249 0.0 0.0 0.00 0.56 0.00 89 1014.8
20260507062528 7 249 0.0 0.0 0.00 0.56 0.00 89 1014.8
20260507062027 7 249 0.0 0.0 0.00 0.56 0.00 89 1014.7
20260507061525 7 249 0.0 0.0 0.00 0.56 0.00 89 1014.8
20260507060524 7 249 0.0 0.0 0.00 0.56 0.00 89 1014.8
20260507055523 7 249 0.0 0.0 0.00 0.56 0.00 89 1014.8
20260507055023 7 249 0.0 0.0 0.00 0.56 0.00 89 1014.7
20260507054522 8 249 0.0 0.0 0.00 0.56 0.00 88 1014.9
20260507053521 8 249 0.0 0.0 0.00 0.56 0.00 89 1014.8
20260507053021 8 249 0.0 0.0 0.00 0.56 0.00 89 1014.8
20260507052520 8 249 0.0 0.0 0.00 0.56 0.00 88 1014.8
20260507052020 8 249 0.0 0.0 0.00 0.56 0.00 88 1014.9
20260507051019 8 249 0.0 0.0 0.00 0.56 0.00 87 1015.0
20260507050018 8 249 0.0 0.0 0.00 0.56 0.00 87 1015.1
20260507045517 8 249 0.0 0.0 0.00 2.08 0.56 86 1015.1
20260507045016 8 249 0.0 0.0 0.00 2.08 0.56 85 1015.1
20260507044516 8 249 0.0 0.0 0.00 2.08 0.56 84 1015.1
20260507044015 8 249 0.0 0.0 0.00 2.08 0.56 84 1015.0
20260507043515 8 249 0.0 0.0 0.00 2.08 0.56 83 1014.9
20260507042012 9 249 0.0 0.0 0.00 2.08 0.56 82 1014.9
20260507041512 9 249 0.0 0.0 0.00 2.08 0.56 82 1014.9
20260507040511 9 249 0.0 0.0 0.00 2.08 0.56 81 1014.8
20260507040010 9 249 0.0 0.0 0.00 2.08 0.56 81 1014.7
20260507035510 9 249 0.0 0.0 0.00 2.08 0.56 81 1014.7
20260507035009 9 249 0.0 0.0 0.00 2.08 0.56 81 1014.7
20260507034509 9 249 0.0 0.0 0.00 2.08 0.56 80 1014.8
20260507034008 9 249 0.0 0.0 0.00 2.08 0.56 79 1014.9
20260507033508 9 249 0.0 0.0 0.00 2.08 0.56 79 1014.7
20260507033007 9 249 0.0 0.0 0.00 2.08 0.56 79 1014.7
20260507032507 10 249 0.0 0.0 0.00 2.08 0.56 79 1014.7
20260507031506 10 249 0.0 0.0 0.00 2.08 0.56 79 1014.8
20260507031005 10 249 0.0 0.0 0.00 2.08 0.56 78 1014.8
20260507030505 10 249 0.0 0.0 0.00 2.08 0.56 78 1014.9
20260507025503 10 249 0.0 0.0 0.00 2.08 0.56 77 1014.9
20260507025003 10 249 0.0 0.0 0.00 2.08 0.56 77 1015.0
20260507024502 10 249 0.0 0.0 0.00 2.08 0.56 77 1015.0
20260507024002 10 249 0.0 0.0 0.00 2.08 0.56 75 1014.9
20260507023501 10 249 0.0 0.0 0.00 2.08 0.56 75 1015.0
20260507023001 10 249 0.0 0.0 0.00 2.08 0.56 74 1014.9
20260507022500 10 249 0.0 0.0 0.00 2.08 0.56 72 1015.0
20260507022000 11 249 0.0 0.0 0.00 2.08 0.56 71 1015.0
20260507021459 11 249 0.0 0.0 0.00 2.08 0.56 70 1014.8
20260507020959 11 249 0.0 0.0 0.00 2.08 0.56 69 1014.8
20260507020458 11 249 0.0 0.0 0.00 2.08 0.56 68 1014.6
20260507015958 11 249 0.0 0.0 0.00 2.08 0.56 67 1014.6
20260507015457 11 249 0.0 0.0 0.00 2.08 0.56 66 1014.6
20260507014956 11 249 0.0 0.0 0.00 2.08 0.56 65 1014.6
20260507014455 12 249 0.0 0.0 0.00 2.08 0.56 65 1014.4
20260507013955 12 249 0.0 0.0 0.00 2.08 0.56 64 1014.4
20260507013454 12 249 0.0 0.0 0.00 2.08 0.56 63 1014.3
20260507012953 12 249 0.0 0.0 0.00 2.08 0.56 64 1014.3
20260507012453 12 249 0.0 0.0 0.00 2.08 0.56 63 1014.3
20260507011952 12 249 0.0 0.0 0.00 2.08 0.56 62 1014.3
20260507010450 13 249 0.0 0.0 0.00 2.08 0.56 59 1014.3
20260507005949 13 249 0.0 0.0 0.00 2.08 0.56 58 1014.1
20260507005449 13 249 0.0 0.0 0.00 2.08 0.56 57 1014.3
20260507004949 13 249 0.0 6.4 0.00 2.08 0.56 56 1014.2
20260507004448 13 249 0.0 8.0 0.00 2.08 0.56 56 1014.2
20260507002945 13 301 0.0 6.4 0.00 2.08 0.56 54 1013.7
20260507002445 13 301 0.0 0.0 0.00 2.08 0.56 54 1013.8
20260507001943 13 273 0.0 6.4 0.00 2.08 0.56 54 1013.7
20260507001443 13 273 0.0 8.0 0.00 2.08 0.56 53 1013.6
20260507000442 13 288 0.0 3.2 0.00 2.08 0.56 53 1013.5
20260506235941 13 314 0.0 8.0 0.00 2.08 0.56 52 1013.6
20260506234940 13 290 4.8 17.7 0.00 2.08 0.56 51 1013.6
20260506234440 13 269 8.0 14.5 0.00 2.08 0.56 51 1013.6
20260506233438 13 297 11.3 11.3 0.00 2.08 0.56 52 1013.4
20260506232938 13 349 9.7 8.0 0.00 2.08 0.56 51 1013.4
20260506232437 14 328 4.8 11.3 0.00 2.08 0.56 50 1013.3
20260506231937 13 329 8.0 14.5 0.00 2.08 0.56 50 1013.3
20260506231436 13 285 9.7 11.3 0.00 2.08 0.56 51 1013.4
20260506230936 13 297 4.8 17.7 0.00 2.08 0.56 51 1013.4
20260506230435 13 343 9.7 16.1 0.00 2.08 0.56 51 1013.5
20260506225935 13 329 1.6 17.7 0.00 2.08 0.56 50 1013.5
20260506225434 14 298 6.4 11.3 0.00 2.08 0.56 50 1013.4
20260506224934 14 301 6.4 14.5 0.00 2.08 0.56 51 1013.5
20260506224433 13 312 8.0 12.9 0.00 2.08 0.56 50 1013.4
20260506222931 14 255 6.4 14.5 0.00 2.08 0.56 50 1013.8
20260506222430 14 276 8.0 16.1 0.00 2.08 0.56 50 1013.8
20260506221930 13 276 4.8 11.3 0.00 2.08 0.56 50 1013.8
20260506221429 13 262 3.2 14.5 0.00 2.08 0.56 51 1013.7
20260506220929 13 291 8.0 11.3 0.00 2.08 0.56 51 1013.8
20260506220428 13 266 8.0 11.3 0.00 2.08 0.56 50 1014.0
20260506215927 13 322 6.4 14.5 0.00 2.08 0.56 51 1013.8
20260506215427 13 301 4.8 9.7 0.00 2.08 0.56 50 1013.8
20260506214926 14 250 6.4 9.7 0.00 2.08 0.56 48 1013.8
20260506213925 13 315 8.0 12.9 0.00 2.08 0.56 49 1013.8
20260506213425 13 316 1.6 16.1 0.00 2.08 0.56 48 1013.7
20260506212924 13 256 11.3 14.5 0.00 2.08 0.56 48 1013.7
20260506212424 14 307 9.7 17.7 0.00 2.08 0.56 47 1013.7
20260506211923 14 314 8.0 19.3 0.00 2.08 0.56 50 1013.5
20260506211423 13 311 9.7 14.5 0.00 2.08 0.56 48 1013.4
20260506210421 13 321 6.4 9.7 0.00 2.08 0.56 48 1013.4
20260506205920 14 4 6.4 16.1 0.00 2.08 0.56 48 1013.3
20260506205420 13 259 8.0 14.5 0.00 2.08 0.56 46 1013.4
20260506204919 13 291 8.0 14.5 0.00 2.08 0.56 47 1013.4
20260506204419 13 274 11.3 12.9 0.00 2.08 0.56 46 1013.3
20260506203918 13 321 4.8 14.5 0.00 2.08 0.56 46 1013.4
20260506203418 13 4 4.8 16.1 0.00 2.08 0.56 47 1013.4
20260506202917 13 267 6.4 16.1 0.00 2.08 0.56 46 1013.5
20260506202415 14 7 9.7 12.9 0.00 2.08 0.56 45 1013.4
20260506201915 13 300 6.4 16.1 0.00 2.08 0.56 47 1013.5
20260506201415 14 300 6.4 16.1 0.00 2.08 0.56 47 1013.3
20260506200914 13 308 0.0 12.9 0.00 2.08 0.56 49 1013.5
20260506200413 13 253 4.8 19.3 0.00 2.08 0.56 48 1013.4
20260506195913 13 326 9.7 19.3 0.00 2.08 0.56 48 1013.4
20260506195412 14 307 9.7 16.1 0.00 2.08 0.56 48 1013.3
20260506195402 14 287 11.3 20.9 0.00 2.08 0.56 47 1013.3
20260506194911 14 287 11.3 20.9 0.00 2.08 0.56 47 1013.3
20260506194410 14 335 8.0 16.1 0.00 2.08 0.56 48 1013.3
20260506193910 14 290 9.7 17.7 0.00 2.08 0.56 49 1013.3
20260506193409 14 359 11.3 17.7 0.00 2.08 0.56 48 1013.1
20260506192909 14 314 8.0 20.9 0.00 2.08 0.56 48 1013.1
20260506192530 14 323 9.7 20.9 0.00 2.08 0.56 47 1013.0
20260506192408 14 323 9.7 20.9 0.00 2.08 0.56 47 1013.0
20260506192246 15 34 9.7 17.7 0.00 2.08 0.56 48 1013.1
20260506191908 15 34 9.7 17.7 0.00 2.08 0.56 48 1013.1
20260506191407 15 359 9.7 19.3 0.00 2.08 0.56 49 1013.1
20260506190907 15 356 11.3 19.3 0.00 2.08 0.56 49 1013.1
20260506190406 14 297 11.3 25.7 0.00 2.08 0.56 48 1013.1
20260506185906 14 328 12.9 20.9 0.00 2.08 0.56 47 1013.1
20260506184905 14 322 9.7 16.1 0.00 2.08 0.56 47 1013.1
20260506184404 14 4 9.7 16.1 0.00 2.08 0.56 48 1013.0
20260506183903 14 283 8.0 17.7 0.00 2.08 0.56 48 1013.0
20260506183403 14 333 9.7 16.1 0.00 2.08 0.56 47 1013.0
20260506182903 14 336 8.0 19.3 0.00 2.08 0.56 46 1013.0
20260506182402 14 352 9.7 12.9 0.00 2.08 0.56 46 1013.0
20260506181901 14 276 6.4 17.7 0.00 2.08 0.56 50 1013.0
20260506181401 13 343 8.0 16.1 0.00 2.08 0.56 48 1013.0
20260506180900 13 309 9.7 16.1 0.00 2.08 0.56 46 1013.0
20260506180400 14 28 11.3 17.7 0.00 2.08 0.56 46 1013.0
20260506175859 13 359 12.9 27.4 0.00 2.08 0.56 45 1013.2
20260506175359 13 330 16.1 20.9 0.00 2.08 0.56 44 1013.2
20260506174858 14 304 9.7 20.9 0.00 2.08 0.56 50 1013.3
20260506174358 13 353 9.7 16.1 0.00 2.08 0.56 49 1013.3
20260506173357 13 14 11.3 20.9 0.00 2.08 0.56 50 1013.4
20260506172553 13 321 6.4 22.5 0.00 2.08 0.56 48 1013.3
20260506172356 13 321 6.4 22.5 0.00 2.08 0.56 48 1013.3
20260506171355 13 342 12.9 12.9 0.00 2.08 0.56 51 1013.4
20260506170854 13 39 9.7 20.9 0.00 2.08 0.56 52 1013.4
20260506170353 13 318 14.5 12.9 0.00 2.08 0.56 53 1013.3
20260506165853 13 31 8.0 16.1 0.00 2.08 0.56 48 1013.5
20260506165352 13 44 12.9 12.9 0.00 2.08 0.56 51 1013.5
20260506164852 13 28 0.0 17.7 0.00 2.08 0.56 53 1013.6
20260506164351 12 291 12.9 14.5 0.00 2.08 0.56 51 1013.5
20260506163851 13 264 6.4 24.1 0.00 2.08 0.56 54 1013.6
20260506162850 13 356 0.0 17.7 0.00 2.08 0.56 55 1013.4
20260506162349 12 293 11.3 22.5 0.00 2.08 0.56 55 1013.5
20260506161849 12 347 9.7 17.7 0.00 2.08 0.56 55 1013.4
20260506160848 13 263 4.8 17.7 0.00 2.08 0.56 57 1013.3
20260506160347 12 329 9.7 19.3 0.00 2.08 0.56 55 1013.4
20260506155846 12 315 9.7 19.3 0.00 2.08 0.56 56 1013.6
20260506155345 12 312 3.2 17.7 0.00 2.08 0.56 56 1013.4
20260506154845 12 333 9.7 16.1 0.00 2.08 0.56 57 1013.3
20260506154344 12 323 8.0 17.7 0.00 2.08 0.56 59 1013.3
20260506153844 11 293 6.4 17.7 0.00 2.08 0.56 57 1013.5
20260506153343 12 308 9.7 12.9 0.00 2.08 0.56 59 1013.8
20260506152843 11 318 6.4 19.3 0.00 2.08 0.56 59 1013.5
20260506152342 12 332 11.3 14.5 0.00 2.08 0.56 58 1013.5
20260506151841 11 305 8.0 14.5 0.00 2.08 0.56 62 1013.5
20260506151516 11 319 9.7 12.9 0.00 2.08 0.56 59 1013.3
20260506151341 11 319 9.7 12.9 0.00 2.08 0.56 59 1013.3
20260506150839 11 330 8.0 12.9 0.00 2.08 0.56 60 1013.1
20260506150339 11 76 9.7 16.1 0.00 2.08 0.56 62 1012.9
20260506145338 11 75 14.5 17.7 0.00 2.08 0.56 64 1012.5
20260506144837 11 318 4.8 24.1 0.00 2.08 0.56 64 1012.5
20260506144337 10 304 11.3 19.3 0.00 2.08 0.56 63 1012.5
20260506143835 10 37 12.9 12.9 0.00 2.08 0.56 63 1012.5
20260506143335 11 316 4.8 24.1 0.00 2.08 0.56 65 1012.3
20260506142834 10 329 14.5 16.1 0.00 2.08 0.56 65 1012.2
20260506142334 10 294 6.4 17.7 0.00 2.08 0.56 66 1012.3
20260506141833 10 300 14.5 22.5 0.00 2.08 0.56 66 1012.4
20260506141333 10 329 16.1 16.1 0.00 2.08 0.56 68 1012.4
20260506140332 10 311 8.0 19.3 0.00 2.08 0.56 69 1012.1
20260506135329 9 307 12.9 14.5 0.00 2.08 0.56 73 1012.3
20260506134825 9 357 9.7 19.3 0.00 2.08 0.56 74 1012.4
20260506134325 9 321 11.3 16.1 0.00 2.08 0.56 75 1012.6
20260506133824 9 307 4.8 19.3 0.00 2.08 0.56 76 1012.6
20260506133323 9 294 4.8 17.7 0.00 2.08 0.56 76 1012.4
20260506132823 9 293 6.4 14.5 0.00 2.08 0.56 78 1012.2
20260506132322 8 347 4.8 14.5 0.00 2.08 0.56 80 1012.1
20260506131822 8 11 11.3 16.1 0.00 2.08 0.56 78 1012.0
20260506131321 8 319 6.4 14.5 0.00 2.08 0.56 80 1012.0
20260506130821 8 295 3.2 14.5 0.00 2.08 0.56 81 1012.1
20260506130321 8 338 9.7 19.3 0.00 2.08 0.56 81 1012.0
20260506125820 8 314 11.3 17.7 0.00 2.08 0.56 81 1011.9
20260506125319 8 13 6.4 11.3 0.00 2.08 0.56 83 1011.5
20260506124318 8 304 6.4 19.3 0.00 2.08 0.56 84 1011.8
20260506123818 8 340 11.3 11.3 0.00 2.08 0.56 83 1011.6
20260506123317 8 13 4.8 12.9 0.00 2.08 0.56 85 1011.3
20260506122817 8 15 9.7 11.3 0.00 2.08 0.56 85 1011.4
20260506122315 8 338 6.4 12.9 0.00 2.08 0.56 86 1011.5
20260506121815 8 6 4.8 16.1 0.00 2.08 0.56 85 1011.5
20260506121314 7 318 6.4 14.5 0.00 2.08 0.56 87 1011.4
20260506120814 7 359 8.0 14.5 0.00 2.08 0.56 87 1011.3
20260506120312 7 28 3.2 12.9 0.00 2.08 0.56 88 1011.2
20260506115812 7 316 9.7 11.3 0.00 2.08 0.56 88 1011.0
20260506115311 7 311 4.8 12.9 0.00 2.08 0.56 89 1011.1
20260506114811 7 353 6.4 16.1 0.00 2.08 0.56 89 1010.9
20260506113809 7 338 6.4 14.5 0.00 2.08 0.56 89 1010.6
20260506113309 7 14 4.8 8.0 0.00 2.08 0.56 89 1010.1
20260506112808 7 346 0.0 4.8 0.00 2.08 0.56 90 1010.0
20260506112308 7 346 0.0 9.7 0.00 2.08 0.56 90 1010.0
20260506111307 7 343 4.8 6.4 0.00 2.08 0.56 89 1010.0
20260506110806 7 294 3.2 9.7 0.00 2.08 0.56 89 1010.1
20260506110306 7 336 3.2 14.5 0.00 2.08 0.56 89 1010.3
20260506105805 7 338 4.8 14.5 0.00 2.08 0.56 89 1010.3
20260506105305 7 346 4.8 12.9 0.00 2.08 0.56 89 1010.2
20260506104804 7 307 6.4 11.3 0.00 2.08 0.56 89 1009.9
20260506103803 7 330 8.0 4.8 0.00 2.08 0.56 90 1010.1
20260506102802 7 278 1.6 8.0 0.00 2.08 0.56 92 1009.7
20260506102301 7 312 0.0 8.0 0.00 2.08 0.56 93 1009.0
20260506101758 7 359 3.2 8.0 0.00 2.08 0.56 93 1008.9
20260506101257 7 298 0.0 9.7 0.00 2.08 0.56 93 1009.1
20260506100256 7 343 6.4 14.5 0.00 2.08 0.56 93 1009.0
20260506095756 7 345 8.0 12.9 0.00 2.08 0.56 93 1009.2
20260506095255 7 302 4.8 12.9 0.00 2.08 0.56 94 1009.5
20260506094755 7 322 4.8 4.8 0.00 2.08 0.56 94 1009.6
20260506094254 7 18 0.0 0.0 0.00 2.08 0.56 94 1009.5